{"data":{"norad_id":61641,"intl_designator":"2024-191W","name":"STARLINK-32327","alt_names":[],"object_type":"PAYLOAD","status":"ACTIVE","operator":null,"country":"US","launch_date":"2024-10-23","launch_site_code":"AFETR","launch_vehicle":null,"mission":null,"orbit_class":"UNKNOWN","rcs_meters":null,"size_class":null,"mass_kg":null,"dimensions":null,"purposes":["comms"],"wikipedia_slug":null,"has_3d_model":false,"image_url":null,"decayed_at":null,"tle_current":{"epoch":"2026-05-25T03:51:00.797760Z","epoch_age_seconds":71399,"freshness":"FRESH","line1":"1 61641U 24191W   26145.16042590 -.00003194  00000+0 -10652-3 0  9995","line2":"2 61641  43.0017  82.4580 0000884 239.5878 120.4887 15.27601046 89238","mean_motion":15.27601046,"eccentricity":8.84e-5,"inclination_deg":43.0017,"raan_deg":82.458,"arg_perigee_deg":239.5878,"mean_anomaly_deg":120.4887,"bstar":-0.00010652,"rev_number":8923,"period_min":94.26544998582,"perigee_km":482.37955418787,"apogee_km":483.59260074797,"semimajor_km":6861.1230774679,"source":"CELESTRAK","updated_at":"2026-05-25T13:38:19.410950Z"}}}